This is the latest recevied weather packets stored in our database for station/object KD8UTJ. If no packets are shown the sender has not sent any weather packets the latest 10 day(s).
| Time | Temp. | Humidity | Pressure | Rain* | Wind** | Luminosity | Snow |
|---|---|---|---|---|---|---|---|
| 1778189818 | 29.44° C | 74% | 1014.5 hPa | 0 mm | - | 68 W/m² | - |
| 1778189516 | 30° C | 74% | 1014.3 hPa | 0 mm | - | 132 W/m² | - |
| 1778189212 | 30° C | 71% | 1014.5 hPa | 0 mm | - | 109 W/m² | - |
| 1778188909 | 29.44° C | 72% | 1014.6 hPa | 0 mm | - | 151 W/m² | - |
| 1778188605 | 30° C | 70% | 1014.5 hPa | 0 mm | - | 87 W/m² | - |
| 1778188301 | 30° C | 70% | 1014.7 hPa | 0 mm | - | 357 W/m² | - |
| 1778187999 | 30° C | 69% | 1014.6 hPa | 0 mm | - | 152 W/m² | - |
| 1778187695 | 30° C | 68% | 1014.7 hPa | 0 mm | - | 291 W/m² | - |
| 1778187392 | 30° C | 68% | 1014.7 hPa | 0 mm | - | 363 W/m² | - |
| 1778187088 | 30.56° C | 67% | 1014.8 hPa | 0 mm | - | 233 W/m² | - |
| 1778186785 | 30° C | 68% | 1014.9 hPa | 0 mm | - | 484 W/m² | - |
| 1778186482 | 30.56° C | 67% | 1014.9 hPa | 0 mm | - | 488 W/m² | - |
| 1778186180 | 30.56° C | 67% | 1014.8 hPa | 0 mm | - | 525 W/m² | - |
| 1778185877 | 30.56° C | 67% | 1014.9 hPa | 0 mm | - | 138 W/m² | - |
| 1778185573 | 30.56° C | 69% | 1014.9 hPa | 0 mm | - | 423 W/m² | - |
| 1778185269 | 30.56° C | 69% | 1014.9 hPa | 0 mm | - | 605 W/m² | - |
| 1778184964 | 30.56° C | 68% | 1015 hPa | 0 mm | - | 606 W/m² | - |
| 1778184662 | 30.56° C | 68% | 1014.9 hPa | 0 mm | - | 174 W/m² | - |
| 1778184357 | 30.56° C | 66% | 1015 hPa | 0 mm | - | 632 W/m² | - |
| 1778184053 | 30.56° C | 64% | 1015 hPa | 0 mm | - | 636 W/m² | - |
| 1778183751 | 30.56° C | 68% | 1015.2 hPa | 0 mm | - | 634 W/m² | - |
| 1778183448 | 30.56° C | 67% | 1015.1 hPa | 0 mm | - | 623 W/m² | - |
| 1778183144 | 30.56° C | 67% | 1015.2 hPa | 0 mm | - | 638 W/m² | - |
| 1778182840 | 30.56° C | 67% | 1015.2 hPa | 0 mm | - | 574 W/m² | - |
| 1778182538 | 30.56° C | 67% | 1015.4 hPa | 0 mm | - | 657 W/m² | - |
* Rain latest hour (hover to see other rain measurements)
** Current wind speed in m/s (hover to see current wind gust speed)